Location: G�ppingen
(48.7089°N, 9.6563°E)
Time: 18:19:04
(UTC+02:00)

NOAA 19 - Visible Passes

Search period start: 20 October 2019 00:00
Search period end: 29 October 2019 23:00
Orbit: 841 x 862 km, 99.2° (Epoch: 19 October)

Date Brightness Start Highest point End Pass type
(mag) Time Alt. Az. Time Alt. Az. Time Alt. Az.
20 Oct 6.6 06:32:11 10° NNE 06:37:26 43° E 06:42:40 10° S visible
20 Oct 8.8 19:47:58 10° WSW 19:49:37 11° W 19:51:17 10° WNW visible
21 Oct 7.0 06:20:39 10° NNE 06:25:41 35° E 06:30:42 10° SSE visible
21 Oct 8.5 19:34:50 10° WSW 19:37:45 14° W 19:40:41 10° NW visible
22 Oct 7.4 06:09:10 10° NE 06:13:53 28° E 06:18:37 10° SSE visible
22 Oct 8.3 19:22:13 10° SW 19:25:53 18° W 19:29:36 10° NW visible
23 Oct 7.7 05:57:46 10° NE 06:02:05 23° E 06:06:25 10° SE visible
23 Oct 8.0 19:09:51 10° SW 19:14:03 23° W 19:18:19 10° NW visible
24 Oct 8.0 05:46:28 10° NE 05:50:17 19° E 05:54:04 10° SE visible
24 Oct 7.6 18:57:38 10° SSW 19:02:15 28° W 19:06:55 10° NW visible
25 Oct 8.3 05:35:21 10° NE 05:38:25 15° E 05:41:30 10° ESE visible
25 Oct 5.3 07:14:18 10° NNE 07:19:51 89° ESE 07:25:24 10° SSW visible
25 Oct 7.2 18:45:32 10° SSW 18:50:28 34° W 18:55:26 10° NNW visible
26 Oct 8.5 05:24:38 10° ENE 05:26:33 12° E 05:28:28 10° ESE visible
26 Oct 5.6 07:02:37 10° NNE 07:08:10 74° ESE 07:13:42 10° S visible
26 Oct 6.8 18:33:33 10° S 18:38:42 42° W 18:43:55 10° NNW visible
27 Oct 5.9 05:50:58 10° NNE 05:56:27 60° ESE 06:01:56 10° S visible
28 Oct 6.3 05:39:22 10° NNE 05:44:44 48° E 05:50:04 10° S visible
29 Oct 6.8 05:27:48 10° NNE 05:32:59 39° E 05:38:08 10° SSE visible
29 Oct 8.5 18:42:41 10° WSW 18:45:05 13° W 18:47:30 10° WNW visible
